#timestamp,LO_Frequency,Hit,StdDev 
1580551215.5,286047000.0,P
1580551235.3,286047000.6,N
1580551255.1,286047001.2,N
1580551275.9,286047000.9,N
1580551295.7,286047000.3,N
1580551315.6,286047002.4,Y
1580551335.4,286046999.0,P
1580551355.2,286046998.6,N
1580551375.1,286046998.6,N
1580551376.0,286046998.6,N
1580551395.8,286046999.6,N
1580551415.7,286046996.6,Y
1580551435.5,286046997.5,P
1580551455.3,286046997.1,P
1580551475.2,286046995.5,P
1580551495.0,286046995.6,Y
1580551495.9,286046995.6,P
1580551515.7,286046997.7,N
1580551535.6,286046999.2,N
1580551555.4,286046998.6,N
1580551575.3,286046996.7,N
1580551595.1,286046997.0,N
1580551596.0,286046997.0,N
1580551615.8,286046999.6,N
1580551635.7,286046998.8,N
1580551655.5,286046998.9,N
1580551675.3,286046999.6,N
1580551695.2,286046998.5,N
1580551715.0,286046998.4,N
1580551715.9,286046998.4,N
1580551735.8,286046998.5,N
1580551755.6,286046998.3,N
1580551775.4,286046996.7,Y
1580551795.3,286047001.0,P
1580551815.1,286047002.8,N
1580551835.9,286047003.0,N
1580551855.7,286047005.3,N
1580551875.5,286047005.6,N
1580551895.4,286047005.3,N
1580551915.2,286047005.8,N
1580551935.0,286047002.9,N
1580551935.9,286047002.9,N
1580551955.8,286047004.0,N
1580551975.6,286047004.0,N
1580551995.5,286047003.6,N
1580552015.3,286047004.2,N
1580552035.1,286047000.1,N
1580552055.9,286047001.0,N
1580552075.7,286046998.9,N
1580552095.5,286046996.6,N
1580552115.4,286046997.2,N
1580552135.2,286046997.0,N
1580552155.1,286046996.6,N
1580552156.0,286046996.6,N
1580552175.8,286046999.4,N
1580552195.6,286046999.6,N
1580552215.5,286046999.4,N
1580552235.3,286047000.1,N
1580552255.1,286047000.5,N
1580552275.9,286046998.5,N
1580552295.7,286047000.5,N
1580552315.6,286047000.5,N
1580552335.4,286047000.8,N
1580552355.2,286046998.1,N
1580552375.1,286047002.4,N
1580552376.0,286047002.4,N
1580552395.8,286047002.8,N
1580552415.6,286047002.7,N
1580552435.5,286047000.3,N
1580552455.3,286046998.8,N
1580552475.2,286047001.1,N
1580552495.9,286046999.9,N
1580552515.7,286046998.2,N
1580552535.6,286046998.4,N
1580552555.4,286046999.8,N
1580552575.2,286047003.7,N
1580552595.1,286047003.3,N
1580552596.0,286047003.3,N
1580552615.8,286047003.9,N
1580552635.7,286047003.8,N
1580552655.5,286047001.4,N
1580552675.3,286047001.7,N
1580552695.2,286047002.8,N
1580552715.0,286047001.4,N
1580552715.9,286047001.4,N
1580552735.8,286047002.6,N
1580552755.6,286046999.8,N
1580552775.4,286046999.7,N
1580552795.3,286046998.2,N
1580552815.1,286047001.2,N
1580552835.8,286047002.8,N
1580552855.7,286047001.2,N
1580552875.5,286046998.1,N
1580552895.4,286046998.9,N
1580552915.2,286046996.6,N
1580552935.0,286046998.7,N
1580552935.9,286046998.7,N
1580552955.8,286047001.0,N
1580552975.6,286046998.9,N
1580552995.4,286046998.7,N
1580553015.3,286046998.8,N
1580553035.1,286046996.8,N
1580553055.9,286046997.2,N
1580553075.7,286046997.9,N
1580553095.5,286046999.0,N
1580553115.4,286046999.4,N
1580553135.2,286046996.5,N
1580553155.0,286046999.3,N
1580553155.9,286046999.3,N
1580553175.8,286046996.8,N
1580553195.6,286046996.8,N
1580553215.5,286046997.4,N
1580553235.3,286046997.7,N
1580553255.1,286046997.7,N
1580553275.9,286046997.2,N
1580553295.7,286046998.0,N
1580553315.5,286046995.1,Y
1580553335.4,286046999.4,P
1580553355.2,286046999.6,N
1580553375.1,286046996.9,P
1580553376.0,286046996.9,N
1580553395.8,286046997.2,N
1580553415.6,286046997.1,N
1580553435.5,286046998.2,N
1580553455.3,286047000.9,N
1580553475.1,286046999.9,N
1580553495.9,286047001.1,N
1580553515.7,286047001.0,N
1580553535.6,286046996.6,N
1580553555.4,286046996.8,N
1580553575.2,286046996.8,N
1580553595.1,286046994.9,Y
1580553596.0,286046994.9,P
1580553615.8,286047001.2,N
1580553635.6,286047000.2,N
1580553655.5,286047000.1,N
1580553675.3,286046999.9,N
1580553695.2,286047001.1,N
1580553715.9,286047000.2,N
1580553735.7,286047000.2,N
1580553755.6,286046998.6,N
1580553775.4,286046999.9,N
1580553795.2,286047001.1,N
1580553815.1,286047002.3,N
1580553816.0,286047002.3,N
1580553835.8,286047004.4,N
1580553855.7,286047006.0,N
1580553875.5,286047001.3,N
1580553895.3,286047003.2,N
1580553915.2,286047002.1,N
1580553935.0,286047002.0,N
1580553935.9,286047002.0,N
1580553955.7,286047003.9,N
1580553975.6,286047002.5,N
1580553995.4,286047002.7,N
1580554015.3,286047001.8,N
1580554035.1,286047004.3,N
1580554036.0,286047004.3,N
1580554055.8,286047000.4,N
1580554075.7,286047000.0,N
1580554095.5,286046999.7,N
1580554115.3,286047002.0,N
1580554135.2,286047002.1,N
1580554155.0,286046999.7,N
1580554155.9,286046999.7,N
1580554175.8,286046998.4,N
1580554195.6,286046998.7,N
1580554215.4,286046999.3,N
1580554235.3,286046998.6,N
1580554255.1,286046999.1,N
1580554275.8,286047001.2,N
1580554295.7,286046998.4,N
1580554315.5,286046998.3,N
1580554335.4,286046998.6,N
1580554355.2,286046998.3,N
1580554375.0,286046999.3,N
1580554375.9,286046999.3,N
1580554395.8,286046996.9,N
1580554415.6,286046998.9,N
1580554435.5,286046996.7,N
1580554455.3,286046998.5,N
1580554475.1,286047000.3,N
1580554495.9,286047000.3,N
1580554515.7,286047000.5,N
1580554535.6,286046999.7,N
1580554555.4,286047002.4,N
1580554575.2,286047000.7,N
1580554595.1,286046998.9,N
1580554596.0,286046998.9,N
1580554615.8,286046998.8,N
1580554635.6,286046999.4,N
1580554655.5,286046996.6,N
1580554675.3,286046996.9,N
1580554695.2,286046998.0,N
1580554715.9,286046998.9,N
1580554735.7,286046998.1,N
1580554755.6,286046998.3,N
1580554775.4,286046998.4,N
1580554795.2,286046999.8,N
